Rbgn^[z[y[W
メイン
   新天体発見情報
     Comet C/2020 N2 (ATLAS)
投稿するにはまず登録を

スレッド表示 | 新しいものから 前のトピック | 次のトピック | 下へ
投稿者 スレッド
佐藤裕久
投稿日時: 2020-7-30 7:04
モデレータ
登録日: 2005-6-12
居住地: 日本
投稿: 2111
オンライン
Comet C/2020 N2 (ATLAS)

7月13日、ハワイ Mauna Loaにある小惑星地球衝突最終警報システム Asteroid Terrestrial-
impact Last Alert System (ATLAS)調査プログラムのコースに0.5-m f/2 Schmidt反射望遠鏡で
得たCCD画像から小惑星状天体が発見された。
小惑星センターのPCCP webpageに公表後、佐藤英貴氏(東京都文京区, 7月15.7日UT,60秒露出24枚
のスタック, 0.51-m f/6.8 アストログラフ, Siding Spring, NSW, 遠隔操作:恒星状の外観で、
4".9の円形範囲で測定した光度は18.4等であった)は、彗星状と確認できなかったが、P. Camilleri, 
J. OeyとR. Groom (Perth天文台, 0.34-m f/5 反射望遠鏡, 7月19.87日, 集光のある拡散した5"の
コマが見える。光度18.2等)ら、他のCCD位置観測者によって彗星状と観測された。

彗星機能の報告は次の通り:

OC   Date        Reporter           Coma    Tail    PA          Exposures
Q62  2020-07-18  K. Yoshimoto        15"     11"    235          10x30s
Q62  2020-07-19  G. Gasparovic               10"    280          50x20s
Q62  2020-07-19  N. Pual              7"      7"     64           7x60s
323  2020-07-19  P. Camilleri         5"
X02  2020-07-20  E. Guido            10"                         15x20s

発見位置は次のとおり、

     2020 UT             R.A. (2000) Decl.       Mag.
     July 13.53880   22 42 19.01   -39 18 28.0   18.2
          13.54110   22 42 17.95   -39 18 36.1   18.4
          13.54387   22 42 16.76   -39 18 45.4   18.4
          13.54893   22 42 14.55   -39 19 03.0   18.7

MPCの放物線軌道要素、位置推算表は次のとおり、

Orbital elements:
    C/2020 N2 (ATLAS)                                                           
T 2020 Aug. 23.33280 TT                                 Rudenko                 
q   1.7959740            (2000.0)            P               Q                  
                   Peri.  330.96285     +0.25026850     -0.91498407             
                   Node   256.97943     -0.81370674     -0.37592436             
e   1.0            Incl.  161.04362     -0.52463989     +0.14657768             
From 78 observations 2020 July 13-24.                                           
                                                                                
Ephemeris:
Date    TT    R. A. (2000) Decl.     Delta      r    Elong.  Phase   m1
2020 06 25    23 57 47.9 -25 07 26   1.4418  1.9487   103.5    30.5  19.1
...
2020 07 10    23 05 04.1 -36 00 06   1.0680  1.8833   129.2    24.7  18.3
...
2020 07 18    22 04 37.4 -43 28 45   0.9332  1.8552   144.2    18.7  18.0
...
2020 07 24    20 56 08.1 -47 54 06   0.8831  1.8375   150.7    15.7  17.8
2020 07 25    20 43 01.9 -48 22 14   0.8798  1.8349   150.8    15.6  17.8
2020 07 26    20 29 37.5 -48 44 20   0.8781  1.8323   150.7    15.8  17.8
...
2020 08 01    19 08 47.5 -48 42 26   0.8991  1.8187   143.6    19.3  17.8
...
2020 08 09    17 43 30.5 -44 10 26   1.0021  1.8054   127.2    26.6  18.1
...
2020 08 24    16 25 15.0 -33 53 34   1.3371  1.7960    98.8    33.8  18.7

(MPEC 2020-O100、CBET 4818)

スレッド表示 | 新しいものから 前のトピック | 次のトピック | トップ

投稿するにはまず登録を
 
© 1999 Tsutomu Seki.